{"data":{"norad_id":45237,"epoch":"2026-05-24T22:50:48.739200Z","epoch_age_seconds":93287,"freshness":"FRESH","line1":"1 45237U 20012BM  26144.95195300  .00088744  00000+0  10948-2 0  9999","line2":"2 45237  53.0427 339.6953 0002687 142.1101 218.0101 15.59455508347526","mean_motion":15.59455508,"eccentricity":0.0002687,"inclination_deg":53.0427,"raan_deg":339.6953,"arg_perigee_deg":142.1101,"mean_anomaly_deg":218.0101,"bstar":0.0010948,"rev_number":34752,"period_min":92.339922018474,"perigee_km":387.41347190845,"apogee_km":391.05025593592,"semimajor_km":6767.3688639222,"source":"CELESTRAK","updated_at":"2026-05-25T13:38:16.386164Z"}}